Location: Unspecified
(50.7693°N, 0.0000°E)
Time: 07:38:48
(UTC+00:00)

Transit 2A - Pass Details

Date: 23 August 2020
Orbit: 591 x 967 km, 66.7° (Epoch: 20 September)

Event Time Altitude Azimuth Distance (km) Brightness Sun altitude
Rises 22:01:43 0° 309° (NW) 3,649 10.7 -22.9°
Reaches altitude 10° 22:05:04 10° 325° (NW) 2,716 9.9 -23.1°
Maximum altitude 22:09:40 20° 11° (NNE) 2,066 8.7 -23.5°
Drops below altitude 10° 22:14:13 10° 58° (ENE) 2,675 8.8 -23.9°
Sets 22:17:29 0° 75° (ENE) 3,578 9.3 -24.1°
